Orbital Elements at Epoch 2459200.5 (2020-Dec-17.0) TDB
Reference: JPL 40 (heliocentric ecliptic J2000)
Element | Value | Uncertainty (1-sigma) | Units |
e | .1933966195875748 | 1.3491e-08 | |
a | 2.684250893273067 | 1.1261e-08 | au |
q | 2.165125844389128 | 3.5173e-08 | au |
i | 12.92428399698671 | 8.1172e-07 | deg |
node | 300.0311882553092 | 2.7564e-06 | deg |
peri | 10.79421897132755 | 8.1046e-06 | deg |
M | 91.86277670686232 | 6.3694e-06 | deg |
tp | 2458790.607328008410 (2019-Nov-03.10732801) | 2.7256e-05 | TDB |
period | 1606.323771246827 4.40 | 1.0108e-05 2.767e-08 | d yr |
n | .2241142205849125 | 1.4103e-09 | deg/d |
Q | 3.203375942157006 | 1.3439e-08 | au |
|
| | Orbit Determination Parameters
Additional Information
|